Theta_e
318 318 318 317 316 315 315 315 314 314 315 315 314 314 315 315 314 312 305 312 315 326 317 314 312 310 311 308 311 312 303 302 303 306 309 315 315 319 321 317 318 319 320 322 324
318 318 318 318 317 316 314 314 314 314 314 314 314 314 314 314 309 306 316 327 328 325 309 309 309 310 306 306 308 306 301 302 309 310 309 312 313 315 314 316 315 317 320 321 322
317 317 317 317 317 316 315 314 314 314 314 314 314 314 314 313 309 311 328 328 326 322 309 313 312 309 305 307 307 306 301 305 307 309 309 309 309 313 310 310 314 313 316 319 320
316 317 317 316 316 316 315 315 315 315 314 314 314 314 313 311 304 320 331 329 327 310 308 311 311 306 303 302 307 303 307 306 307 310 310 308 310 308 310 310 314 315 316 316 316
315 316 316 316 316 316 316 315 315 314 314 314 313 314 311 309 311 324 327 324 312 311 309 312 308 307 302 305 306 304 306 308 309 309 309 310 307 307 309 313 314 314 314 314 315
314 314 315 316 316 316 316 316 314 314 313 313 314 314 309 304 319 318 316 313 311 312 312 312 309 310 307 306 305 307 307 307 308 308 308 306 306 307 308 312 312 312 312 313 314
314 314 314 315 315 315 315 315 314 314 314 314 315 314 308 307 314 320 318 313 313 314 310 312 312 308 308 305 309 308 304 305 306 307 305 307 303 303 309 310 310 311 312 313 315
313 313 313 313 314 315 315 315 314 314 314 314 315 313 307 316 317 321 320 318 318 317 314 313 313 310 307 309 306 303 303 298 304 306 306 305 297 306 311 309 308 309 310 312 315
313 312 313 312 313 314 314 314 314 315 316 315 313 311 308 314 308 314 321 312 312 313 316 316 313 308 307 302 300 302 296 298 301 307 306 304 300 306 310 309 308 310 311 312 313
313 312 312 312 312 313 313 313 314 314 314 317 315 310 313 310 309 311 320 315 309 311 311 309 307 304 303 300 293 297 297 299 299 305 305 302 302 305 308 308 309 310 311 312 313
314 312 311 311 312 311 312 315 314 312 312 309 311 309 310 313 312 308 318 313 311 308 302 307 300 297 301 303 303 301 300 299 303 305 303 302 302 304 308 308 308 309 311 313 314
314 313 312 311 311 311 310 310 313 314 305 312 312 312 315 314 304 309 315 307 305 300 304 303 298 303 305 304 302 301 298 298 302 305 303 302 301 305 307 308 309 309 311 313 315
313 312 311 311 311 310 310 314 319 317 306 309 311 310 310 311 307 306 311 308 304 301 302 300 303 307 303 302 300 300 299 299 298 302 304 302 300 302 306 309 310 311 313 314 314
312 312 310 310 309 318 315 319 318 318 300 304 305 308 310 310 304 313 312 308 304 301 303 302 306 304 302 300 301 297 303 301 300 298 293 302 292 301 305 306 309 311 311 312 314
312 311 310 309 311 313 316 319 319 317 291 306 307 315 311 305 306 306 313 308 302 303 303 299 302 301 300 301 303 299 303 301 301 298 297 297 294 299 305 303 307 311 312 314 315
312 311 309 314 314 316 320 319 316 300 291 302 307 305 304 306 306 308 307 310 307 302 302 302 306 304 303 304 304 304 301 301 300 298 291 296 296 296 301 305 308 311 312 313 312
311 309 308 315 315 319 318 312 299 295 306 301 302 305 304 302 303 304 302 300 297 292 293 298 299 304 305 300 304 302 298 290 289 290 289 299 296 300 308 309 309 309 311 312 311
309 307 313 318 321 319 316 306 295 301 301 305 304 304 301 303 303 303 301 299 302 299 295 293 292 300 303 300 299 299 298 292 285 288 291 300 294 299 309 311 311 311 311 311 310
306 319 319 321 321 320 311 300 300 301 304 302 303 300 300 303 302 302 301 300 302 303 295 294 294 304 305 306 303 298 294 300 294 296 291 295 299 305 308 308 310 309 309 308 309
306 314 317 320 323 317 307 300 303 306 306 304 298 301 297 300 300 300 299 304 302 305 306 299 293 302 303 305 306 301 303 293 294 286 286 292 294 296 302 304 306 307 306 308 310
309 312 318 321 320 311 302 303 305 308 306 303 301 299 299 299 300 299 299 303 304 303 305 302 298 296 301 299 298 299 296 297 297 295 288 287 292 305 303 305 305 307 308 308 308
312 307 319 321 306 309 304 305 301 305 307 305 304 302 300 300 298 299 298 301 306 304 298 302 298 292 295 302 304 302 299 298 291 291 295 293 292 306 308 306 308 306 306 307 309
306 308 319 317 302 304 308 305 305 303 304 303 301 303 304 300 295 299 300 305 305 303 300 302 295 290 292 298 301 298 300 300 299 298 291 288 291 305 306 305 307 307 308 309 310
307 303 310 311 310 304 304 302 302 307 302 303 303 303 300 298 300 297 298 302 304 303 303 302 297 294 288 293 297 294 297 298 297 292 292 293 294 299 303 304 306 307 307 307 308
308 305 307 301 304 304 304 302 300 299 303 303 301 300 297 293 296 296 298 299 302 304 302 300 292 294 294 295 296 295 295 296 294 295 291 294 294 298 302 303 304 305 306 306 307
303 302 305 302 304 302 300 300 299 300 299 299 297 299 299 294 295 292 296 297 295 300 300 300 292 294 291 295 295 293 295 296 296 296 296 295 295 301 303 304 304 305 305 304 305
309 310 305 301 301 299 300 300 299 300 301 301 299 297 296 297 300 301 300 300 300 297 296 294 293 291 287 294 293 289 295 295 297 298 296 292 297 302 301 302 302 303 304 304 303
Wind_Speed
18 17 16 16 14 14 14 14 13 13 12 13 13 13 14 14 16 14 16 12 16 6 1 10 15 17 17 16 17 17 13 16 22 21 18 15 10 9 7 11 5 3 7 6 6
18 18 17 16 15 14 14 13 13 13 13 12 12 13 12 13 16 22 19 8 7 9 13 14 16 18 16 17 15 16 12 22 18 13 13 21 15 11 8 15 10 12 11 9 7
18 18 17 17 16 15 14 14 12 12 12 12 12 11 11 12 14 10 22 17 12 8 16 17 16 17 19 17 20 18 17 17 17 17 16 16 10 12 13 16 9 9 12 12 8
20 20 19 17 16 16 15 15 13 12 12 11 11 10 11 9 5 6 12 15 11 12 16 17 20 19 18 21 21 20 21 19 19 19 7 8 9 15 17 14 12 13 13 9 9
19 20 20 20 18 16 15 15 13 11 11 11 10 9 9 9 13 9 11 10 11 12 17 19 16 17 19 19 19 22 18 19 17 18 11 10 13 15 17 14 13 13 10 11 10
16 18 19 20 20 18 16 13 14 11 10 9 10 9 8 13 13 12 12 12 13 16 16 17 13 15 16 18 18 15 19 16 17 12 14 14 16 16 16 16 16 13 12 14 13
17 16 17 18 19 20 18 14 12 11 10 9 8 8 12 17 3 11 10 10 15 16 13 13 14 12 15 12 18 13 14 12 16 17 14 15 18 19 16 17 13 14 13 12 12
17 17 17 18 19 20 21 19 16 12 10 9 7 8 10 6 12 10 12 12 14 11 13 11 12 13 15 12 5 14 15 16 17 18 19 15 16 16 15 21 16 5 10 12 9
17 17 18 19 20 20 22 21 13 11 9 8 8 10 10 3 10 12 11 9 9 11 7 2 7 13 13 14 11 13 13 20 20 20 18 19 18 16 12 4 7 12 13 10 11
19 18 18 19 20 20 22 15 2 3 6 10 11 9 9 11 11 14 12 10 9 8 9 8 8 11 14 12 13 16 20 17 17 13 13 13 15 17 11 15 14 14 13 13 13
20 20 20 19 19 19 15 6 6 6 8 9 4 12 1 3 11 13 12 11 11 9 12 14 11 13 17 18 18 21 20 15 10 13 16 16 15 16 15 14 15 13 13 12 12
23 22 21 22 20 17 11 9 8 4 8 18 19 16 19 2 7 10 14 11 12 14 14 13 14 16 17 16 18 18 18 14 17 16 13 12 15 15 17 18 16 14 13 12 10
23 24 24 23 21 12 13 14 13 15 8 5 14 14 14 7 12 13 15 15 12 15 16 16 16 18 16 16 16 14 14 15 17 16 16 14 16 17 20 20 19 18 13 10 9
23 24 24 25 9 7 13 15 9 8 6 10 9 8 8 7 10 15 16 14 15 15 15 15 17 18 11 13 15 17 16 17 17 15 14 15 15 19 14 17 20 16 12 10 11
22 22 23 13 13 7 7 5 7 2 5 11 10 11 12 11 3 11 13 13 17 16 11 15 17 16 15 18 14 13 14 15 14 14 15 17 14 14 18 20 18 15 18 13 11
25 24 20 4 7 13 12 11 6 6 4 7 9 10 13 14 10 13 7 7 14 12 18 19 18 12 10 12 15 15 16 13 14 13 15 18 19 16 17 18 11 8 16 8 6
27 29 17 7 6 10 8 7 6 7 7 4 9 12 14 10 14 10 15 13 10 5 11 14 19 18 12 12 14 7 8 10 13 14 15 21 19 12 11 12 7 5 7 8 6
27 32 9 9 9 6 7 8 8 8 5 5 4 6 9 11 12 13 12 12 16 16 14 12 14 16 12 15 15 16 14 11 18 15 16 21 15 14 14 11 5 3 6 3 1
30 8 7 3 2 3 8 9 6 8 8 8 11 11 7 5 5 5 10 9 7 13 15 9 16 15 13 16 13 13 14 12 10 12 14 14 21 20 17 11 2 0 2 3 4
10 10 5 4 4 5 7 14 3 6 9 6 9 7 2 3 5 6 3 2 7 8 5 7 11 11 15 18 17 14 10 7 7 6 12 12 14 10 10 14 6 4 2 6 9
5 6 7 5 4 7 9 2 2 10 5 7 9 7 4 8 6 7 3 4 5 5 5 9 8 9 15 13 13 13 12 11 10 13 9 12 10 12 12 6 8 11 12 12 11
7 6 7 5 7 8 11 3 3 5 1 6 4 8 7 7 9 10 10 3 6 8 6 2 4 9 18 19 17 17 17 10 5 7 10 11 15 16 12 13 14 9 12 13 14
7 10 6 4 7 7 5 3 3 4 5 6 2 2 7 5 4 7 6 7 2 5 3 3 1 8 11 16 13 15 16 14 12 14 17 15 12 9 9 16 14 18 20 17 14
7 5 6 6 7 8 11 6 5 8 3 4 7 4 6 9 6 7 2 2 3 6 7 4 10 13 11 12 3 4 12 16 15 10 13 16 22 19 17 19 18 15 17 15 12
6 3 4 6 6 7 8 10 7 5 4 2 4 2 6 3 7 12 10 9 7 5 9 2 10 16 17 20 23 23 20 18 20 21 21 19 25 21 21 19 17 16 12 15 15
6 6 8 11 6 8 5 8 5 5 2 4 3 5 5 6 9 16 15 11 8 8 6 5 4 11 18 21 23 24 23 22 23 22 23 23 23 19 16 13 18 17 17 17 18
8 6 5 7 7 5 3 7 6 3 4 5 5 4 8 9 9 11 11 12 12 10 10 1 5 7 13 17 15 16 21 22 21 19 13 13 15 19 18 17 16 17 18 19 18
Wind_Direction
350 350 349 344 340 329 324 319 311 304 299 294 295 295 297 302 297 256 247 232 214 212 18 243 197 213 220 238 225 242 242 239 241 261 281 290 222 222 268 269 355 315 274 55 64
348 350 349 346 344 334 326 320 315 308 300 296 295 297 302 311 289 269 243 193 128 158 227 222 203 204 208 213 222 228 229 243 252 261 258 275 286 284 215 253 241 252 266 267 252
343 345 346 347 343 342 330 321 314 307 301 298 296 300 305 302 277 253 200 183 161 183 230 233 224 203 216 222 209 215 238 254 243 267 257 277 305 273 282 257 248 274 274 258 257
340 339 341 342 340 337 336 322 313 308 304 301 303 306 310 281 290 74 113 141 163 208 226 244 238 208 218 221 223 217 225 236 261 267 286 276 281 278 281 271 270 276 286 312 304
338 337 336 335 335 331 326 328 311 304 301 299 301 305 284 234 252 126 131 141 175 200 210 230 222 220 219 228 219 231 238 242 229 251 262 276 277 262 259 260 260 257 281 272 260
332 334 332 330 327 324 321 313 313 294 286 285 289 301 253 258 101 140 146 168 185 193 219 229 221 225 234 239 233 233 235 241 263 240 257 233 245 261 261 270 255 249 254 259 249
329 329 328 325 322 319 317 310 304 284 277 271 274 272 264 250 360 162 161 175 182 212 215 228 245 248 244 276 259 254 239 239 240 250 237 252 251 239 243 244 229 229 234 246 263
327 325 324 324 321 318 315 311 299 277 264 255 251 263 266 221 233 204 187 199 208 213 246 220 240 266 244 271 272 246 245 255 249 225 236 232 251 257 268 212 228 252 266 255 259
325 324 320 320 320 320 318 314 286 273 241 227 230 219 263 135 217 229 207 214 190 226 244 324 252 245 226 245 228 231 241 237 248 243 204 212 248 253 235 155 223 212 233 238 238
323 321 319 315 317 320 323 311 35 169 195 206 255 256 252 248 175 218 205 222 187 215 210 220 226 229 238 213 234 231 219 235 256 228 188 230 225 249 231 198 220 225 235 242 250
321 320 319 315 313 316 321 232 209 189 224 232 268 250 98 40 131 203 198 217 200 222 227 205 232 224 228 227 246 266 283 298 283 229 195 207 224 243 249 248 246 219 222 225 226
319 318 317 314 309 302 291 245 304 327 275 229 247 276 290 151 192 213 189 205 215 226 216 246 220 247 244 242 244 244 267 278 286 294 294 273 263 265 262 262 260 260 252 246 246
316 316 316 315 309 284 226 240 263 302 281 241 206 230 241 213 259 198 190 212 219 228 241 234 246 218 236 265 261 255 269 269 265 276 270 254 258 257 253 251 250 254 250 250 260
313 314 318 324 290 270 212 228 220 246 273 147 186 188 208 223 244 256 182 218 239 237 235 250 245 263 214 244 262 263 241 250 259 266 266 264 269 258 265 245 225 224 220 234 236
311 313 317 322 307 278 34 314 342 218 277 188 120 135 157 179 67 236 179 213 242 251 248 262 245 256 260 262 244 263 271 274 269 267 271 263 264 265 259 251 248 228 194 197 215
313 313 327 170 223 257 300 303 249 236 271 157 131 176 165 204 177 174 220 255 247 304 311 292 280 302 295 289 251 253 270 266 262 266 255 254 254 258 260 260 266 342 169 145 100
314 309 307 293 293 327 313 243 239 253 214 104 161 171 186 172 221 181 186 200 229 253 258 282 283 290 256 254 282 226 256 258 250 241 248 243 244 254 328 332 351 227 142 108 88
314 310 248 233 256 298 270 243 253 259 80 71 292 290 235 180 218 190 197 218 201 233 273 275 269 245 255 261 290 260 247 248 276 283 292 310 288 283 310 322 204 205 286 65 75
312 278 227 201 246 225 271 256 302 24 9 3 325 274 213 198 267 225 240 269 241 217 237 277 272 280 271 291 259 265 263 298 329 306 278 266 283 285 284 342 343 189 246 288 241
315 287 245 158 181 249 255 261 317 41 0 309 286 317 283 321 305 287 216 307 306 276 240 276 301 307 306 294 291 273 278 270 260 283 273 266 279 277 360 316 18 303 239 256 254
266 242 113 215 189 241 249 184 302 89 353 332 338 318 307 322 302 300 232 331 313 268 282 274 249 274 293 278 247 261 242 251 255 248 257 279 270 305 0 300 312 294 301 306 307
297 273 115 187 235 236 249 68 329 295 26 260 337 322 318 326 303 286 286 214 317 322 314 299 277 260 271 283 270 241 271 257 251 255 266 269 269 282 302 336 344 306 298 284 268
280 291 139 223 255 278 305 285 165 288 339 330 279 337 320 293 291 284 282 18 42 285 300 324 288 276 271 241 241 257 240 258 271 250 264 270 277 292 205 264 271 279 271 266 277
278 278 173 202 267 297 315 300 254 121 285 324 307 331 318 325 297 282 297 330 355 347 85 338 265 262 271 301 180 265 306 305 288 261 268 260 282 289 294 298 293 296 302 306 317
247 9 23 299 48 338 310 310 289 269 122 189 246 63 40 276 298 266 275 327 311 331 297 328 269 272 279 288 289 284 270 246 252 262 264 278 275 285 290 290 283 289 357 337 325
306 349 356 296 326 296 253 270 292 74 336 125 282 39 348 292 309 311 307 278 271 294 297 153 247 260 274 272 272 272 273 271 266 268 272 278 280 278 296 332 353 346 349 335 324
348 288 266 299 277 269 2 28 41 7 262 14 17 316 299 312 317 291 286 288 273 276 285 260 286 297 270 279 295 263 256 261 264 265 292 304 340 341 347 1 352 329 325 320 340